Time,TemperatureF,DewpointF,PressureIn,WindDirection,WindDirectionDegrees,WindSpeedMPH,WindSpeedGustMPH,Humidity,HourlyPrecipIn,Conditions,Clouds,dailyrainin,SoftwareType,DateUTC
2013-01-09 00:02:00,51.0,48.4,29.30,NNW,338,4.0,7.1,91,0.16,,,0.00,WUHU216HW,2013-01-09 06:02:00,
2013-01-09 00:07:00,51.0,48.4,29.31,NW,315,0.0,7.1,91,0.16,,,0.02,WUHU216HW,2013-01-09 06:07:00,
2013-01-09 00:12:00,51.0,48.4,29.34,West,270,0.0,1.5,91,0.14,,,0.02,WUHU216HW,2013-01-09 06:12:00,
2013-01-09 00:17:00,51.0,48.4,29.34,West,270,0.0,0.0,91,0.14,,,0.04,WUHU216HW,2013-01-09 06:17:00,
2013-01-09 00:22:00,51.0,48.4,29.32,NW,315,3.1,5.1,91,0.12,,,0.04,WUHU216HW,2013-01-09 06:22:00,
2013-01-09 00:27:00,51.0,48.4,29.31,NNW,338,8.5,8.5,91,0.12,,,0.06,WUHU216HW,2013-01-09 06:27:00,
2013-01-09 00:32:00,50.9,48.3,29.30,NW,315,6.2,8.5,91,0.12,,,0.08,WUHU216HW,2013-01-09 06:32:00,
2013-01-09 00:37:00,50.9,48.3,29.29,WNW,293,6.2,8.5,91,0.12,,,0.08,WUHU216HW,2013-01-09 06:37:00,
2013-01-09 00:42:00,50.9,48.3,29.28,WNW,293,1.7,7.3,91,0.14,,,0.12,WUHU216HW,2013-01-09 06:42:00,
2013-01-09 00:47:00,50.7,48.1,29.29,WNW,293,0.0,6.2,91,0.12,,,0.12,WUHU216HW,2013-01-09 06:47:00,
2013-01-09 00:52:00,50.7,48.1,29.29,NNW,338,0.8,2.9,91,0.14,,,0.14,WUHU216HW,2013-01-09 06:52:00,
2013-01-09 00:57:00,50.7,48.1,29.30,WNW,293,4.9,4.9,91,0.14,,,0.14,WUHU216HW,2013-01-09 06:57:00,
2013-01-09 01:02:00,50.7,48.1,29.30,WNW,293,2.0,4.9,91,0.14,,,0.14,WUHU216HW,2013-01-09 07:02:00,
2013-01-09 01:07:00,50.7,48.1,29.30,WNW,293,1.1,4.9,91,0.12,,,0.14,WUHU216HW,2013-01-09 07:07:00,
2013-01-09 01:12:00,50.7,48.1,29.30,WNW,293,0.0,1.5,91,0.10,,,0.14,WUHU216HW,2013-01-09 07:12:00,
2013-01-09 01:17:00,50.9,48.3,29.32,WNW,293,0.0,1.1,91,0.12,,,0.17,WUHU216HW,2013-01-09 07:17:00,
2013-01-09 01:22:00,50.9,48.3,29.33,WNW,293,0.0,0.0,91,0.10,,,0.17,WUHU216HW,2013-01-09 07:22:00,
2013-01-09 01:27:00,50.9,48.3,29.34,WSW,248,0.0,0.0,91,0.10,,,0.17,WUHU216HW,2013-01-09 07:27:00,
2013-01-09 01:32:00,51.0,48.4,29.35,WSW,248,0.0,0.0,91,0.10,,,0.19,WUHU216HW,2013-01-09 07:32:00,
2013-01-09 01:37:00,51.0,48.4,29.35,West,270,0.0,0.0,91,0.06,,,0.19,WUHU216HW,2013-01-09 07:37:00,
2013-01-09 01:42:00,51.0,48.4,29.35,West,270,0.0,0.0,91,0.08,,,0.20,WUHU216HW,2013-01-09 07:42:00,
2013-01-09 01:47:00,51.0,48.4,29.35,WSW,248,0.0,0.0,91,0.06,,,0.20,WUHU216HW,2013-01-09 07:47:00,
2013-01-09 01:52:00,51.0,48.4,29.35,WSW,248,0.0,2.0,91,0.10,,,0.22,WUHU216HW,2013-01-09 07:52:00,
2013-01-09 01:57:00,51.0,48.4,29.35,NNW,338,0.0,2.0,91,0.10,,,0.24,WUHU216HW,2013-01-09 07:57:00,
2013-01-09 02:02:00,51.0,48.4,29.35,WNW,293,2.0,2.0,91,0.10,,,0.24,WUHU216HW,2013-01-09 08:02:00,
2013-01-09 02:07:00,51.0,48.4,29.34,WNW,293,2.0,2.0,91,0.12,,,0.27,WUHU216HW,2013-01-09 08:07:00,
2013-01-09 02:12:00,51.0,48.4,29.34,NW,315,0.0,2.0,91,0.18,,,0.33,WUHU216HW,2013-01-09 08:12:00,
2013-01-09 02:17:00,51.2,48.6,29.35,WNW,293,0.0,0.0,91,0.18,,,0.35,WUHU216HW,2013-01-09 08:17:00,
2013-01-09 02:22:00,51.2,48.6,29.34,WNW,293,0.0,0.0,91,0.20,,,0.37,WUHU216HW,2013-01-09 08:22:00,
2013-01-09 02:27:00,51.2,48.6,29.33,NW,315,0.0,0.0,91,0.24,,,0.39,WUHU216HW,2013-01-09 08:27:00,
2013-01-09 02:32:00,51.4,48.8,29.33,West,270,1.5,2.2,91,0.24,,,0.43,WUHU216HW,2013-01-09 08:32:00,
2013-01-09 02:37:00,51.4,48.8,29.33,NW,315,2.2,2.2,91,0.26,,,0.45,WUHU216HW,2013-01-09 08:37:00,
2013-01-09 02:42:00,51.4,48.8,29.33,NNW,338,0.0,2.2,91,0.28,,,0.49,WUHU216HW,2013-01-09 08:42:00,
2013-01-09 02:47:00,51.4,48.8,29.33,NNE,23,0.0,1.7,91,0.28,,,0.49,WUHU216HW,2013-01-09 08:47:00,
2013-01-09 02:52:00,51.6,49.0,29.33,WNW,293,0.0,0.0,91,0.30,,,0.53,WUHU216HW,2013-01-09 08:52:00,
2013-01-09 02:57:00,51.6,49.0,29.33,WNW,293,0.0,0.0,91,0.30,,,0.53,WUHU216HW,2013-01-09 08:57:00,
2013-01-09 03:02:00,51.6,49.0,29.33,NW,315,0.0,0.0,91,0.30,,,0.55,WUHU216HW,2013-01-09 09:02:00,
2013-01-09 03:15:00,51.8,49.2,29.32,West,270,0.0,0.0,91,0.28,,,0.55,WUHU216HW,2013-01-09 09:15:00,
2013-01-09 03:20:00,51.9,49.3,29.32,NNE,23,1.5,2.2,91,0.20,,,0.55,WUHU216HW,2013-01-09 09:20:00,
2013-01-09 03:25:00,52.1,49.5,29.32,North,0,0.0,2.2,91,0.22,,,0.59,WUHU216HW,2013-01-09 09:25:00,
2013-01-09 03:30:00,52.1,49.5,29.31,NNW,338,0.0,1.5,91,0.20,,,0.59,WUHU216HW,2013-01-09 09:30:00,
2013-01-09 03:35:00,52.5,49.9,29.31,ENE,68,0.6,0.6,91,0.20,,,0.61,WUHU216HW,2013-01-09 09:35:00,
2013-01-09 03:40:00,52.8,50.5,29.31,NW,315,2.4,8.7,92,0.20,,,0.61,WUHU216HW,2013-01-09 09:40:00,
2013-01-09 03:45:00,53.2,50.9,29.30,NW,315,7.1,8.7,92,0.14,,,0.63,WUHU216HW,2013-01-09 09:45:00,
2013-01-09 03:50:00,53.4,51.1,29.30,NW,315,5.3,7.1,92,0.16,,,0.65,WUHU216HW,2013-01-09 09:50:00,
2013-01-09 03:55:00,53.4,51.1,29.30,NW,315,3.5,5.3,92,0.12,,,0.65,WUHU216HW,2013-01-09 09:55:00,
2013-01-09 04:00:00,53.7,51.4,29.30,North,0,0.0,5.3,92,0.14,,,0.67,WUHU216HW,2013-01-09 10:00:00,
2013-01-09 04:12:00,53.7,51.4,29.30,WNW,293,0.6,5.8,92,0.12,,,0.67,WUHU216HW,2013-01-09 10:12:00,
2013-01-09 04:17:00,54.1,51.8,29.29,North,0,2.0,5.8,92,0.14,,,0.69,WUHU216HW,2013-01-09 10:17:00,
2013-01-09 04:22:00,53.9,51.6,29.31,WSW,248,0.0,3.3,92,0.16,,,0.69,WUHU216HW,2013-01-09 10:22:00,
2013-01-09 04:27:00,54.1,51.8,29.31,NW,315,0.0,3.3,92,0.12,,,0.72,WUHU216HW,2013-01-09 10:27:00,
2013-01-09 04:32:00,54.1,51.8,29.30,NE,45,0.0,1.5,92,0.12,,,0.72,WUHU216HW,2013-01-09 10:32:00,
2013-01-09 04:37:00,54.1,51.8,29.30,NNE,23,0.6,4.9,92,0.10,,,0.72,WUHU216HW,2013-01-09 10:37:00,
2013-01-09 04:42:00,54.3,52.0,29.29,NNE,23,0.0,4.9,92,0.08,,,0.72,WUHU216HW,2013-01-09 10:42:00,
2013-01-09 04:47:00,54.5,52.1,29.28,NNW,338,4.4,4.4,92,0.08,,,0.72,WUHU216HW,2013-01-09 10:47:00,
2013-01-09 04:52:00,54.6,52.0,29.28,NE,45,0.0,4.4,91,0.08,,,0.74,WUHU216HW,2013-01-09 10:52:00,
2013-01-09 04:57:00,54.6,52.0,29.28,NE,45,0.6,0.6,91,0.08,,,0.74,WUHU216HW,2013-01-09 10:57:00,
2013-01-09 05:02:00,54.8,52.2,29.29,ENE,68,5.3,5.3,91,0.06,,,0.74,WUHU216HW,2013-01-09 11:02:00,
2013-01-09 05:07:00,55.0,52.4,29.28,NNW,338,2.4,5.3,91,0.06,,,0.74,WUHU216HW,2013-01-09 11:07:00,
2013-01-09 05:12:00,55.2,52.6,29.28,NE,45,0.0,8.2,91,0.04,,,0.74,WUHU216HW,2013-01-09 11:12:00,
2013-01-09 05:17:00,55.2,52.6,29.28,NW,315,4.2,8.2,91,0.04,,,0.74,WUHU216HW,2013-01-09 11:17:00,
2013-01-09 05:22:00,55.2,52.6,29.27,ENE,68,1.5,5.5,91,0.02,,,0.74,WUHU216HW,2013-01-09 11:22:00,
2013-01-09 05:27:00,55.2,52.3,29.27,North,0,0.0,5.5,90,0.02,,,0.74,WUHU216HW,2013-01-09 11:27:00,
2013-01-09 05:32:00,55.2,52.3,29.28,NNE,23,3.3,3.3,90,0.02,,,0.74,WUHU216HW,2013-01-09 11:32:00,
2013-01-09 05:37:00,55.4,52.5,29.29,NNE,23,4.2,4.2,90,0.02,,,0.74,WUHU216HW,2013-01-09 11:37:00,
2013-01-09 05:42:00,55.5,52.7,29.30,West,270,0.0,4.2,90,0.02,,,0.74,WUHU216HW,2013-01-09 11:42:00,
2013-01-09 05:47:00,55.7,52.8,29.30,North,0,0.0,4.2,90,0.00,,,0.74,WUHU216HW,2013-01-09 11:47:00,
2013-01-09 05:52:00,55.7,52.8,29.29,ENE,68,2.9,2.9,90,0.00,,,0.74,WUHU216HW,2013-01-09 11:52:00,
2013-01-09 05:57:00,55.7,52.8,29.29,WNW,293,1.7,2.9,90,0.00,,,0.74,WUHU216HW,2013-01-09 11:57:00,
2013-01-09 06:02:00,55.7,52.8,29.28,North,0,0.0,2.9,90,0.00,,,0.74,WUHU216HW,2013-01-09 12:02:00,
2013-01-09 06:07:00,55.5,52.7,29.28,NNW,338,1.5,5.8,90,0.02,,,0.76,WUHU216HW,2013-01-09 12:07:00,
2013-01-09 06:12:00,55.5,52.7,29.29,NNW,338,0.0,5.8,90,0.02,,,0.76,WUHU216HW,2013-01-09 12:12:00,
2013-01-09 06:17:00,55.5,52.7,29.29,NNW,338,0.0,1.5,90,0.02,,,0.76,WUHU216HW,2013-01-09 12:17:00,
2013-01-09 06:22:00,55.5,52.7,29.29,ENE,68,0.0,0.0,90,0.02,,,0.76,WUHU216HW,2013-01-09 12:22:00,
2013-01-09 06:27:00,55.4,52.5,29.29,NW,315,0.0,0.0,90,0.02,,,0.76,WUHU216HW,2013-01-09 12:27:00,
2013-01-09 06:32:00,55.4,52.5,29.29,North,0,0.0,0.0,90,0.04,,,0.78,WUHU216HW,2013-01-09 12:32:00,
2013-01-09 06:37:00,55.4,52.5,29.29,North,0,0.0,0.0,90,0.04,,,0.78,WUHU216HW,2013-01-09 12:37:00,
2013-01-09 06:42:00,55.4,52.5,29.29,WNW,293,3.1,3.1,90,0.06,,,0.80,WUHU216HW,2013-01-09 12:42:00,
2013-01-09 06:47:00,55.2,52.3,29.29,NE,45,1.5,3.1,90,0.06,,,0.80,WUHU216HW,2013-01-09 12:47:00,
2013-01-09 06:52:00,55.2,52.3,29.30,NW,315,1.5,4.0,90,0.08,,,0.82,WUHU216HW,2013-01-09 12:52:00,
2013-01-09 06:57:00,55.2,52.3,29.31,NW,315,4.0,4.0,90,0.08,,,0.82,WUHU216HW,2013-01-09 12:57:00,
2013-01-09 07:02:00,55.2,52.3,29.32,WSW,248,0.0,4.0,90,0.08,,,0.82,WUHU216HW,2013-01-09 13:02:00,
2013-01-09 07:07:00,55.2,52.3,29.32,NNW,338,0.0,4.0,90,0.06,,,0.82,WUHU216HW,2013-01-09 13:07:00,
2013-01-09 07:12:00,55.2,52.3,29.32,WNW,293,0.0,0.0,90,0.06,,,0.82,WUHU216HW,2013-01-09 13:12:00,
2013-01-09 07:17:00,55.2,52.3,29.32,NNE,23,0.0,0.0,90,0.08,,,0.84,WUHU216HW,2013-01-09 13:17:00,
2013-01-09 07:22:00,55.2,52.3,29.31,WNW,293,0.0,0.0,90,0.10,,,0.84,WUHU216HW,2013-01-09 13:22:00,
2013-01-09 07:27:00,55.2,52.3,29.31,NW,315,0.0,1.1,90,0.10,,,0.86,WUHU216HW,2013-01-09 13:27:00,
2013-01-09 07:32:00,55.2,52.3,29.31,NNW,338,1.1,1.1,90,0.08,,,0.86,WUHU216HW,2013-01-09 13:32:00,
2013-01-09 07:37:00,55.2,52.3,29.31,NW,315,2.0,2.2,90,0.06,,,0.86,WUHU216HW,2013-01-09 13:37:00,
2013-01-09 07:42:00,55.2,52.3,29.31,NW,315,0.0,2.2,90,0.08,,,0.88,WUHU216HW,2013-01-09 13:42:00,
2013-01-09 07:47:00,55.0,52.1,29.31,ENE,68,3.1,3.1,90,0.06,,,0.88,WUHU216HW,2013-01-09 13:47:00,
2013-01-09 07:52:00,55.2,52.3,29.32,NNW,338,0.0,3.1,90,0.06,,,0.88,WUHU216HW,2013-01-09 13:52:00,
2013-01-09 07:57:00,55.2,52.3,29.31,North,0,0.0,0.0,90,0.06,,,0.88,WUHU216HW,2013-01-09 13:57:00,
2013-01-09 08:02:00,55.2,52.3,29.31,NE,45,0.0,0.0,90,0.06,,,0.88,WUHU216HW,2013-01-09 14:02:00,
2013-01-09 08:07:00,55.2,52.3,29.31,NW,315,0.8,2.2,90,0.06,,,0.88,WUHU216HW,2013-01-09 14:07:00,
2013-01-09 08:12:00,55.2,52.3,29.31,WNW,293,3.1,3.1,90,0.04,,,0.88,WUHU216HW,2013-01-09 14:12:00,
2013-01-09 08:17:00,55.4,52.5,29.31,NW,315,0.6,4.2,90,0.04,,,0.88,WUHU216HW,2013-01-09 14:17:00,
2013-01-09 08:22:00,55.4,52.5,29.31,WNW,293,0.0,4.2,90,0.02,,,0.88,WUHU216HW,2013-01-09 14:22:00,
2013-01-09 08:27:00,55.4,52.5,29.31,NW,315,0.8,2.4,90,0.02,,,0.88,WUHU216HW,2013-01-09 14:27:00,
2013-01-09 08:32:00,55.4,52.5,29.32,WSW,248,0.0,2.4,90,0.02,,,0.88,WUHU216HW,2013-01-09 14:32:00,
2013-01-09 08:37:00,55.4,52.5,29.33,West,270,0.0,0.8,90,0.00,,,0.88,WUHU216HW,2013-01-09 14:37:00,
2013-01-09 08:42:00,55.4,52.5,29.33,West,270,0.0,0.0,90,0.00,,,0.88,WUHU216HW,2013-01-09 14:42:00,
2013-01-09 08:47:00,55.4,52.5,29.34,West,270,2.0,2.0,90,0.00,,,0.88,WUHU216HW,2013-01-09 14:47:00,
2013-01-09 08:52:00,55.4,52.5,29.34,NW,315,3.1,3.1,90,0.00,,,0.88,WUHU216HW,2013-01-09 14:52:00,
2013-01-09 08:57:00,55.4,52.5,29.35,WSW,248,0.0,3.1,90,0.00,,,0.88,WUHU216HW,2013-01-09 14:57:00,
2013-01-09 09:02:00,55.5,52.7,29.35,West,270,0.0,3.1,90,0.00,,,0.88,WUHU216HW,2013-01-09 15:02:00,
2013-01-09 09:07:00,55.5,52.7,29.35,WSW,248,0.0,2.0,90,0.00,,,0.88,WUHU216HW,2013-01-09 15:07:00,
2013-01-09 09:12:00,55.4,52.5,29.35,West,270,0.0,2.0,90,0.02,,,0.90,WUHU216HW,2013-01-09 15:12:00,
2013-01-09 09:17:00,55.5,52.7,29.35,NNW,338,2.6,2.6,90,0.06,,,0.94,WUHU216HW,2013-01-09 15:17:00,
2013-01-09 09:22:00,55.5,52.7,29.34,WNW,293,0.0,4.4,90,0.08,,,0.96,WUHU216HW,2013-01-09 15:22:00,
2013-01-09 09:27:00,55.5,52.7,29.34,WNW,293,2.2,4.4,90,0.10,,,0.98,WUHU216HW,2013-01-09 15:27:00,
2013-01-09 09:32:00,55.5,52.9,29.34,NW,315,3.1,3.1,91,0.12,,,1.00,WUHU216HW,2013-01-09 15:32:00,
2013-01-09 09:37:00,55.9,53.3,29.34,NW,315,0.0,3.1,91,0.14,,,1.02,WUHU216HW,2013-01-09 15:37:00,
2013-01-09 09:42:00,55.9,53.3,29.34,West,270,0.0,2.0,91,0.16,,,1.04,WUHU216HW,2013-01-09 15:42:00,
2013-01-09 09:47:00,55.9,53.3,29.34,NW,315,0.0,2.0,91,0.16,,,1.04,WUHU216HW,2013-01-09 15:47:00,
2013-01-09 09:52:00,55.9,53.3,29.34,WNW,293,1.7,1.7,91,0.18,,,1.06,WUHU216HW,2013-01-09 15:52:00,
2013-01-09 09:57:00,56.1,53.5,29.34,NW,315,7.3,7.3,91,0.20,,,1.06,WUHU216HW,2013-01-09 15:57:00,
2013-01-09 10:02:00,56.1,53.5,29.34,WNW,293,0.0,7.3,91,0.20,,,1.08,WUHU216HW,2013-01-09 16:02:00,
2013-01-09 10:07:00,56.1,53.5,29.34,NW,315,0.0,7.3,91,0.20,,,1.08,WUHU216HW,2013-01-09 16:07:00,
2013-01-09 10:12:00,56.1,53.5,29.34,North,0,1.3,1.7,91,0.14,,,1.08,WUHU216HW,2013-01-09 16:12:00,
2013-01-09 10:17:00,55.9,53.3,29.34,NNW,338,3.1,5.3,91,0.14,,,1.10,WUHU216HW,2013-01-09 16:17:00,
2013-01-09 10:22:00,55.9,53.3,29.33,NNE,23,2.9,5.3,91,0.12,,,1.10,WUHU216HW,2013-01-09 16:22:00,
2013-01-09 10:27:00,55.9,53.3,29.33,NNW,338,0.0,2.9,91,0.12,,,1.10,WUHU216HW,2013-01-09 16:27:00,
2013-01-09 10:32:00,55.9,53.3,29.34,NNW,338,0.0,2.9,91,0.12,,,1.12,WUHU216HW,2013-01-09 16:32:00,
2013-01-09 10:37:00,55.9,53.3,29.33,NNW,338,2.6,2.6,91,0.08,,,1.12,WUHU216HW,2013-01-09 16:37:00,
2013-01-09 10:42:00,55.7,52.8,29.34,NNW,338,2.0,3.1,90,0.08,,,1.12,WUHU216HW,2013-01-09 16:42:00,
2013-01-09 10:47:00,55.7,52.8,29.34,NNW,338,1.7,3.1,90,0.06,,,1.12,WUHU216HW,2013-01-09 16:47:00,
2013-01-09 10:52:00,55.5,52.7,29.34,West,270,4.2,4.2,90,0.06,,,1.12,WUHU216HW,2013-01-09 16:52:00,
2013-01-09 10:57:00,55.5,52.7,29.34,WNW,293,2.4,4.2,90,0.06,,,1.12,WUHU216HW,2013-01-09 16:57:00,
2013-01-09 11:02:00,55.4,52.5,29.33,NNW,338,0.0,4.2,90,0.06,,,1.14,WUHU216HW,2013-01-09 17:02:00,
2013-01-09 11:07:00,55.4,52.5,29.33,NW,315,6.4,6.4,90,0.06,,,1.14,WUHU216HW,2013-01-09 17:07:00,
2013-01-09 11:12:00,55.4,52.5,29.33,West,270,0.0,6.4,90,0.04,,,1.14,WUHU216HW,2013-01-09 17:12:00,
2013-01-09 11:17:00,55.2,52.3,29.33,WNW,293,0.0,6.4,90,0.06,,,1.16,WUHU216HW,2013-01-09 17:17:00,
2013-01-09 11:22:00,55.2,52.3,29.34,NW,315,4.2,4.2,90,0.06,,,1.16,WUHU216HW,2013-01-09 17:22:00,
2013-01-09 11:27:00,55.2,52.3,29.35,West,270,0.0,4.2,90,0.08,,,1.19,WUHU216HW,2013-01-09 17:27:00,
2013-01-09 11:32:00,55.2,52.3,29.36,WSW,248,0.0,4.2,90,0.06,,,1.19,WUHU216HW,2013-01-09 17:32:00,
2013-01-09 11:37:00,55.0,52.3,29.37,West,270,0.0,0.0,90,0.06,,,1.19,WUHU216HW,2013-01-09 17:37:00,
2013-01-09 11:42:00,55.0,52.1,29.37,West,270,0.0,0.0,90,0.08,,,1.20,WUHU216HW,2013-01-09 17:42:00,
2013-01-09 11:47:00,55.0,52.1,29.36,West,270,0.0,0.0,90,0.08,,,1.20,WUHU216HW,2013-01-09 17:47:00,
2013-01-09 11:52:00,55.0,52.1,29.35,NW,315,0.0,0.0,90,0.12,,,1.24,WUHU216HW,2013-01-09 17:52:00,
2013-01-09 11:57:00,55.0,52.1,29.33,NNW,338,0.0,0.0,90,0.14,,,1.26,WUHU216HW,2013-01-09 17:57:00,
2013-01-09 12:02:00,55.0,52.1,29.32,NW,315,0.0,2.2,90,0.14,,,1.29,WUHU216HW,2013-01-09 18:02:00,
2013-01-09 12:07:00,55.0,52.1,29.33,West,270,0.0,2.2,90,0.16,,,1.31,WUHU216HW,2013-01-09 18:07:00,
2013-01-09 12:12:00,55.0,52.1,29.31,NNW,338,5.5,6.2,90,0.14,,,1.31,WUHU216HW,2013-01-09 18:12:00,
2013-01-09 12:17:00,55.2,52.3,29.31,WNW,293,0.0,6.2,90,0.14,,,1.31,WUHU216HW,2013-01-09 18:17:00,
2013-01-09 12:22:00,55.2,52.3,29.31,NW,315,0.8,7.6,90,0.12,,,1.31,WUHU216HW,2013-01-09 18:22:00,
2013-01-09 12:27:00,55.2,52.3,29.31,NW,315,2.9,7.6,90,0.12,,,1.31,WUHU216HW,2013-01-09 18:27:00,
2013-01-09 12:32:00,55.2,52.3,29.32,NNW,338,0.0,3.3,90,0.14,,,1.33,WUHU216HW,2013-01-09 18:32:00,
2013-01-09 12:37:00,55.2,52.3,29.31,NW,315,0.0,3.3,90,0.12,,,1.33,WUHU216HW,2013-01-09 18:37:00,
2013-01-09 12:42:00,55.2,52.3,29.31,NW,315,4.6,4.6,90,0.12,,,1.33,WUHU216HW,2013-01-09 18:42:00,
2013-01-09 12:47:00,55.2,52.3,29.30,NW,315,6.0,6.0,90,0.10,,,1.33,WUHU216HW,2013-01-09 18:47:00,
2013-01-09 12:52:00,55.2,52.3,29.29,NNW,338,0.8,6.0,90,0.06,,,1.33,WUHU216HW,2013-01-09 18:52:00,
2013-01-09 12:58:00,55.2,52.3,29.27,NNE,23,2.6,6.0,90,0.04,,,1.33,WUHU216HW,2013-01-09 18:58:00,
2013-01-09 13:03:00,55.0,52.1,29.26,NW,315,2.9,3.8,90,0.04,,,1.33,WUHU216HW,2013-01-09 19:03:00,
2013-01-09 13:08:00,55.0,51.9,29.24,NNW,338,5.8,8.9,90,0.02,,,1.33,WUHU216HW,2013-01-09 19:08:00,
2013-01-09 13:13:00,54.6,51.8,29.21,NNW,338,6.4,8.9,90,0.02,,,1.33,WUHU216HW,2013-01-09 19:13:00,
2013-01-09 13:18:00,54.6,51.8,29.20,WNW,293,4.6,8.5,90,0.02,,,1.33,WUHU216HW,2013-01-09 19:18:00,
2013-01-09 13:23:00,54.5,51.6,29.20,North,0,10.5,10.5,90,0.02,,,1.33,WUHU216HW,2013-01-09 19:23:00,
2013-01-09 13:28:00,54.3,51.4,29.20,NW,315,5.3,10.5,90,0.02,,,1.33,WUHU216HW,2013-01-09 19:28:00,
2013-01-09 13:33:00,54.3,51.4,29.21,NNE,23,3.3,10.5,90,0.00,,,1.33,WUHU216HW,2013-01-09 19:33:00,
2013-01-09 13:38:00,54.3,51.4,29.20,WNW,293,10.7,10.7,90,0.00,,,1.33,WUHU216HW,2013-01-09 19:38:00,
2013-01-09 13:43:00,54.3,51.4,29.19,NW,315,9.6,10.7,90,0.00,,,1.33,WUHU216HW,2013-01-09 19:43:00,
2013-01-09 13:48:00,54.5,51.6,29.17,NNW,338,3.3,10.7,90,0.00,,,1.33,WUHU216HW,2013-01-09 19:48:00,
2013-01-09 13:53:00,54.6,51.8,29.18,NW,315,11.1,11.1,90,0.00,,,1.33,WUHU216HW,2013-01-09 19:53:00,
2013-01-09 13:58:00,54.8,51.9,29.18,WNW,293,0.8,11.1,90,0.00,,,1.33,WUHU216HW,2013-01-09 19:58:00,
2013-01-09 14:03:00,54.8,51.9,29.16,NE,45,0.0,11.1,90,0.00,,,1.33,WUHU216HW,2013-01-09 20:03:00,
2013-01-09 14:08:00,55.0,51.8,29.16,NW,315,0.0,7.1,89,0.00,,,1.33,WUHU216HW,2013-01-09 20:08:00,
2013-01-09 14:13:00,55.2,52.0,29.17,ESE,113,0.0,2.9,89,0.00,,,1.33,WUHU216HW,2013-01-09 20:13:00,
2013-01-09 14:18:00,55.4,52.1,29.18,NE,45,0.0,0.0,89,0.00,,,1.33,WUHU216HW,2013-01-09 20:18:00,
2013-01-09 14:23:00,55.9,52.7,29.19,SW,225,0.0,0.6,89,0.00,,,1.33,WUHU216HW,2013-01-09 20:23:00,
2013-01-09 14:28:00,56.1,52.9,29.19,NW,315,1.7,1.7,89,0.00,,,1.33,WUHU216HW,2013-01-09 20:28:00,
2013-01-09 14:33:00,56.4,52.9,29.19,NNW,338,0.0,1.7,88,0.00,,,1.33,WUHU216HW,2013-01-09 20:33:00,
2013-01-09 14:38:00,56.4,52.9,29.19,NW,315,0.0,1.7,88,0.00,,,1.33,WUHU216HW,2013-01-09 20:38:00,
2013-01-09 14:43:00,57.0,53.8,29.20,SSE,158,0.0,0.0,89,0.00,,,1.33,WUHU216HW,2013-01-09 20:43:00,
2013-01-09 14:48:00,57.3,53.8,29.21,SSW,203,1.3,1.3,88,0.00,,,1.33,WUHU216HW,2013-01-09 20:48:00,
2013-01-09 14:53:00,57.5,54.0,29.22,SSW,203,1.7,3.8,88,0.00,,,1.33,WUHU216HW,2013-01-09 20:53:00,
2013-01-09 14:58:00,57.7,53.8,29.22,SW,225,1.7,3.8,87,0.00,,,1.33,WUHU216HW,2013-01-09 20:58:00,
2013-01-09 15:03:00,57.9,54.0,29.22,WSW,248,2.0,2.0,87,0.00,,,1.33,WUHU216HW,2013-01-09 21:03:00,
2013-01-09 15:08:00,57.9,54.0,29.22,SSW,203,0.0,2.0,87,0.00,,,1.33,WUHU216HW,2013-01-09 21:08:00,
2013-01-09 15:13:00,58.1,54.2,29.23,WSW,248,0.0,2.0,87,0.00,,,1.33,WUHU216HW,2013-01-09 21:13:00,
2013-01-09 15:18:00,58.2,54.1,29.23,SW,225,0.0,0.8,86,0.00,,,1.33,WUHU216HW,2013-01-09 21:18:00,
2013-01-09 15:23:00,58.2,54.1,29.24,SW,225,0.0,4.4,86,0.00,,,1.33,WUHU216HW,2013-01-09 21:23:00,
2013-01-09 15:28:00,57.9,53.7,29.24,SW,225,2.0,4.4,86,0.00,,,1.33,WUHU216HW,2013-01-09 21:28:00,
2013-01-09 15:33:00,57.7,53.5,29.25,SSW,203,0.0,2.0,86,0.00,,,1.33,WUHU216HW,2013-01-09 21:33:00,
2013-01-09 15:38:00,57.7,53.5,29.24,WSW,248,0.0,1.1,86,0.00,,,1.33,WUHU216HW,2013-01-09 21:38:00,
2013-01-09 15:43:00,57.5,53.3,29.24,WSW,248,2.2,2.2,86,0.00,,,1.33,WUHU216HW,2013-01-09 21:43:00,
2013-01-09 15:48:00,57.5,53.3,29.24,WSW,248,3.5,3.5,86,0.00,,,1.33,WUHU216HW,2013-01-09 21:48:00,
2013-01-09 15:53:00,57.5,53.3,29.24,West,270,0.0,3.5,86,0.00,,,1.33,WUHU216HW,2013-01-09 21:53:00,
2013-01-09 15:58:00,57.5,53.3,29.25,WSW,248,0.0,3.5,86,0.00,,,1.33,WUHU216HW,2013-01-09 21:58:00,
2013-01-09 16:03:00,57.3,53.2,29.24,WNW,293,0.0,0.0,86,0.00,,,1.33,WUHU216HW,2013-01-09 22:03:00,
2013-01-09 16:08:00,57.3,53.2,29.26,WNW,293,0.0,0.0,86,0.00,,,1.33,WUHU216HW,2013-01-09 22:08:00,
2013-01-09 16:13:00,57.2,53.0,29.26,WSW,248,0.0,0.0,86,0.00,,,1.33,WUHU216HW,2013-01-09 22:13:00,
2013-01-09 16:18:00,57.2,53.0,29.26,SSW,203,0.0,0.0,86,0.00,,,1.33,WUHU216HW,2013-01-09 22:18:00,
2013-01-09 16:23:00,57.0,52.8,29.27,SSW,203,2.4,2.4,86,0.00,,,1.33,WUHU216HW,2013-01-09 22:23:00,
2013-01-09 16:28:00,57.0,52.8,29.27,SSE,158,0.6,2.4,86,0.00,,,1.33,WUHU216HW,2013-01-09 22:28:00,
2013-01-09 16:33:00,57.0,52.8,29.27,SSW,203,1.3,1.5,86,0.00,,,1.33,WUHU216HW,2013-01-09 22:33:00,
2013-01-09 16:38:00,56.8,52.6,29.26,SSW,203,1.7,2.9,86,0.00,,,1.33,WUHU216HW,2013-01-09 22:38:00,
2013-01-09 16:43:00,56.8,52.6,29.26,SW,225,0.0,2.9,86,0.00,,,1.33,WUHU216HW,2013-01-09 22:43:00,
2013-01-09 16:48:00,56.8,52.6,29.26,SSW,203,0.0,1.3,86,0.00,,,1.33,WUHU216HW,2013-01-09 22:48:00,
2013-01-09 16:53:00,56.8,52.6,29.27,SSW,203,3.8,3.8,86,0.00,,,1.33,WUHU216HW,2013-01-09 22:53:00,
2013-01-09 16:58:00,56.8,52.6,29.27,SSW,203,0.0,3.8,86,0.00,,,1.33,WUHU216HW,2013-01-09 22:58:00,
2013-01-09 17:03:00,56.8,52.6,29.27,SSW,203,0.0,0.0,86,0.00,,,1.33,WUHU216HW,2013-01-09 23:03:00,
2013-01-09 17:08:00,56.8,52.6,29.27,SW,225,0.0,0.0,86,0.00,,,1.33,WUHU216HW,2013-01-09 23:08:00,
2013-01-09 17:13:00,56.8,52.6,29.27,SSW,203,1.3,1.3,86,0.00,,,1.33,WUHU216HW,2013-01-09 23:13:00,
2013-01-09 17:18:00,56.8,52.6,29.27,SW,225,0.0,1.3,86,0.00,,,1.33,WUHU216HW,2013-01-09 23:18:00,
2013-01-09 17:23:00,56.8,52.6,29.27,SSW,203,0.0,2.2,86,0.00,,,1.33,WUHU216HW,2013-01-09 23:23:00,
2013-01-09 17:28:00,56.8,52.6,29.27,SSW,203,0.0,2.2,86,0.00,,,1.33,WUHU216HW,2013-01-09 23:28:00,
2013-01-09 17:33:00,56.6,52.4,29.27,SSW,203,0.6,1.7,86,0.00,,,1.33,WUHU216HW,2013-01-09 23:33:00,
2013-01-09 17:38:00,56.6,52.4,29.28,South,180,0.0,1.7,86,0.00,,,1.33,WUHU216HW,2013-01-09 23:38:00,
2013-01-09 17:43:00,56.4,52.3,29.28,SSW,203,0.0,0.6,86,0.00,,,1.33,WUHU216HW,2013-01-09 23:43:00,
2013-01-09 17:48:00,56.4,52.3,29.28,SW,225,0.0,2.4,86,0.00,,,1.33,WUHU216HW,2013-01-09 23:48:00,
2013-01-09 17:53:00,56.3,52.1,29.28,SSW,203,0.0,2.4,86,0.00,,,1.33,WUHU216HW,2013-01-09 23:53:00,
2013-01-09 17:58:00,56.3,52.1,29.29,SW,225,0.0,0.0,86,0.00,,,1.33,WUHU216HW,2013-01-09 23:58:00,
2013-01-09 18:03:00,56.1,51.9,29.29,SW,225,0.0,0.0,86,0.00,,,1.33,WUHU216HW,2013-01-10 00:03:00,
2013-01-09 18:08:00,56.1,51.9,29.29,SSW,203,0.0,0.0,86,0.00,,,1.33,WUHU216HW,2013-01-10 00:08:00,
2013-01-09 18:13:00,56.1,51.9,29.29,SSW,203,0.0,0.0,86,0.00,,,1.33,WUHU216HW,2013-01-10 00:13:00,
2013-01-09 18:18:00,56.1,51.9,29.30,SSW,203,0.0,0.0,86,0.00,,,1.33,WUHU216HW,2013-01-10 00:18:00,
2013-01-09 18:23:00,56.1,51.9,29.29,SSW,203,0.0,0.0,86,0.00,,,1.33,WUHU216HW,2013-01-10 00:23:00,
2013-01-09 18:28:00,56.1,51.9,29.29,SSW,203,0.0,0.0,86,0.00,,,1.33,WUHU216HW,2013-01-10 00:28:00,
2013-01-09 18:33:00,56.1,51.9,29.29,SSW,203,0.0,0.0,86,0.00,,,1.33,WUHU216HW,2013-01-10 00:33:00,
2013-01-09 18:38:00,55.9,51.7,29.29,NE,45,0.0,0.0,86,0.00,,,1.33,WUHU216HW,2013-01-10 00:38:00,
2013-01-09 18:43:00,55.9,51.7,29.29,NE,45,0.0,0.0,86,0.00,,,1.33,WUHU216HW,2013-01-10 00:43:00,
2013-01-09 18:48:00,55.7,51.5,29.30,East,90,0.0,0.0,86,0.00,,,1.33,WUHU216HW,2013-01-10 00:48:00,
2013-01-09 18:53:00,55.7,51.5,29.29,East,90,0.0,0.0,86,0.00,,,1.33,WUHU216HW,2013-01-10 00:53:00,
2013-01-09 18:58:00,55.7,51.5,29.29,NNW,338,0.0,0.0,86,0.00,,,1.33,WUHU216HW,2013-01-10 00:58:00,
2013-01-09 19:03:00,55.7,51.5,29.29,NNW,338,0.0,0.0,86,0.00,,,1.33,WUHU216HW,2013-01-10 01:03:00,
2013-01-09 19:08:00,55.7,51.9,29.29,NNW,338,0.0,0.0,87,0.00,,,1.33,WUHU216HW,2013-01-10 01:08:00,
2013-01-09 19:13:00,55.7,51.9,29.29,NNW,338,0.0,0.0,87,0.00,,,1.33,WUHU216HW,2013-01-10 01:13:00,
2013-01-09 19:18:00,55.5,51.7,29.29,NNW,338,0.0,0.0,87,0.00,,,1.33,WUHU216HW,2013-01-10 01:18:00,
2013-01-09 19:23:00,55.5,51.7,29.29,NNW,338,0.0,0.0,87,0.00,,,1.33,WUHU216HW,2013-01-10 01:23:00,
2013-01-09 19:28:00,55.5,51.7,29.29,NNW,338,0.0,0.0,87,0.00,,,1.33,WUHU216HW,2013-01-10 01:28:00,
2013-01-09 19:33:00,55.4,51.5,29.29,NNW,338,0.0,0.0,87,0.00,,,1.33,WUHU216HW,2013-01-10 01:33:00,
2013-01-09 19:38:00,55.2,51.3,29.29,WSW,248,0.0,0.0,87,0.00,,,1.33,WUHU216HW,2013-01-10 01:38:00,
2013-01-09 19:43:00,55.0,51.1,29.30,WSW,248,0.0,0.0,87,0.00,,,1.33,WUHU216HW,2013-01-10 01:43:00,
2013-01-09 19:48:00,54.6,50.8,29.29,WSW,248,0.0,0.0,87,0.00,,,1.33,WUHU216HW,2013-01-10 01:48:00,
2013-01-09 19:53:00,54.6,50.8,29.29,WSW,248,0.0,0.0,87,0.00,,,1.33,WUHU216HW,2013-01-10 01:53:00,
2013-01-09 19:58:00,54.3,50.4,29.29,WSW,248,0.0,0.0,87,0.00,,,1.33,WUHU216HW,2013-01-10 01:58:00,
2013-01-09 20:03:00,54.3,50.4,29.29,SW,225,0.0,0.0,87,0.00,,,1.33,WUHU216HW,2013-01-10 02:03:00,
2013-01-09 20:08:00,53.9,50.1,29.30,SSW,203,0.6,0.6,87,0.00,,,1.33,WUHU216HW,2013-01-10 02:08:00,
2013-01-09 20:13:00,53.7,49.9,29.31,WSW,248,1.5,2.9,87,0.00,,,1.33,WUHU216HW,2013-01-10 02:13:00,
2013-01-09 20:18:00,53.4,49.6,29.31,SW,225,0.0,2.9,87,0.00,,,1.33,WUHU216HW,2013-01-10 02:18:00,
2013-01-09 20:23:00,53.4,49.6,29.30,WSW,248,0.0,0.0,87,0.00,,,1.33,WUHU216HW,2013-01-10 02:23:00,
2013-01-09 20:28:00,53.4,49.9,29.30,SW,225,0.0,0.0,88,0.00,,,1.33,WUHU216HW,2013-01-10 02:28:00,
2013-01-09 20:33:00,53.4,49.9,29.29,WSW,248,1.5,1.5,88,0.00,,,1.33,WUHU216HW,2013-01-10 02:33:00,
2013-01-09 20:38:00,53.6,50.1,29.30,WSW,248,0.0,2.0,88,0.00,,,1.33,WUHU216HW,2013-01-10 02:38:00,
2013-01-09 20:43:00,53.6,50.1,29.30,WSW,248,0.0,2.0,88,0.00,,,1.33,WUHU216HW,2013-01-10 02:43:00,
2013-01-09 20:48:00,53.4,49.9,29.30,WSW,248,0.0,0.0,88,0.00,,,1.33,WUHU216HW,2013-01-10 02:48:00,
2013-01-09 20:53:00,53.4,49.9,29.30,NE,45,0.0,0.0,88,0.00,,,1.33,WUHU216HW,2013-01-10 02:53:00,
2013-01-09 20:58:00,53.4,49.9,29.29,NE,45,0.0,0.0,88,0.00,,,1.33,WUHU216HW,2013-01-10 02:58:00,
2013-01-09 21:03:00,53.2,49.7,29.30,South,180,0.0,0.0,88,0.00,,,1.33,WUHU216HW,2013-01-10 03:03:00,
2013-01-09 21:08:00,52.8,49.3,29.29,SW,225,0.0,0.0,88,0.00,,,1.33,WUHU216HW,2013-01-10 03:08:00,
2013-01-09 21:13:00,52.8,49.3,29.29,SSW,203,0.0,0.0,88,0.00,,,1.33,WUHU216HW,2013-01-10 03:13:00,
2013-01-09 21:18:00,52.5,49.0,29.30,East,90,0.0,0.0,88,0.00,,,1.33,WUHU216HW,2013-01-10 03:18:00,
2013-01-09 21:23:00,52.3,48.8,29.30,SSE,158,0.0,0.0,88,0.00,,,1.33,WUHU216HW,2013-01-10 03:23:00,
2013-01-09 21:28:00,52.3,48.8,29.31,South,180,0.8,0.8,88,0.00,,,1.33,WUHU216HW,2013-01-10 03:28:00,
2013-01-09 21:33:00,52.3,48.8,29.31,SSW,203,0.0,0.8,88,0.00,,,1.33,WUHU216HW,2013-01-10 03:33:00,
2013-01-09 21:38:00,52.3,49.1,29.31,SSW,203,0.0,0.0,89,0.00,,,1.33,WUHU216HW,2013-01-10 03:38:00,
2013-01-09 21:43:00,52.1,48.9,29.31,SSW,203,0.0,0.0,89,0.00,,,1.33,WUHU216HW,2013-01-10 03:43:00,
2013-01-09 21:48:00,52.1,48.9,29.32,SSW,203,0.0,0.0,89,0.00,,,1.33,WUHU216HW,2013-01-10 03:48:00,
2013-01-09 21:53:00,52.1,48.9,29.32,ENE,68,0.0,0.0,89,0.00,,,1.33,WUHU216HW,2013-01-10 03:53:00,
2013-01-09 21:58:00,51.9,48.7,29.33,ENE,68,0.0,0.0,89,0.00,,,1.33,WUHU216HW,2013-01-10 03:58:00,
2013-01-09 22:03:00,51.9,48.7,29.33,SSE,158,0.0,0.0,89,0.00,,,1.33,WUHU216HW,2013-01-10 04:03:00,
2013-01-09 22:08:00,51.9,48.7,29.34,SSE,158,0.0,0.0,89,0.00,,,1.33,WUHU216HW,2013-01-10 04:08:00,
2013-01-09 22:14:00,51.9,48.7,29.34,SSE,158,0.0,0.0,89,0.00,,,1.33,WUHU216HW,2013-01-10 04:14:00,
2013-01-09 22:19:00,51.9,48.7,29.34,SE,135,0.0,0.0,89,0.00,,,1.33,WUHU216HW,2013-01-10 04:19:00,
2013-01-09 22:24:00,51.9,48.7,29.34,SE,135,0.0,0.0,89,0.00,,,1.33,WUHU216HW,2013-01-10 04:24:00,
2013-01-09 22:29:00,51.9,48.7,29.33,SE,135,0.0,0.0,89,0.00,,,1.33,WUHU216HW,2013-01-10 04:29:00,
2013-01-09 22:34:00,51.9,48.7,29.33,South,180,0.0,0.0,89,0.00,,,1.33,WUHU216HW,2013-01-10 04:34:00,
2013-01-09 22:39:00,51.9,48.7,29.33,South,180,0.0,0.0,89,0.00,,,1.33,WUHU216HW,2013-01-10 04:39:00,
2013-01-09 22:44:00,51.9,48.7,29.33,South,180,0.0,0.0,89,0.00,,,1.33,WUHU216HW,2013-01-10 04:44:00,
2013-01-09 22:49:00,51.9,48.7,29.33,South,180,0.0,0.0,89,0.00,,,1.33,WUHU216HW,2013-01-10 04:49:00,
2013-01-09 22:54:00,51.9,48.7,29.33,SW,225,1.1,1.1,89,0.00,,,1.33,WUHU216HW,2013-01-10 04:54:00,
2013-01-09 22:59:00,51.9,48.7,29.33,SW,225,0.0,1.1,89,0.00,,,1.33,WUHU216HW,2013-01-10 04:59:00,
2013-01-09 23:04:00,51.8,48.6,29.33,SW,225,0.0,0.0,89,0.00,,,1.33,WUHU216HW,2013-01-10 05:04:00,
2013-01-09 23:09:00,51.8,48.6,29.32,SW,225,0.0,0.0,89,0.00,,,1.33,WUHU216HW,2013-01-10 05:09:00,
2013-01-09 23:14:00,51.6,48.4,29.32,ENE,68,0.0,0.0,89,0.00,,,1.33,WUHU216HW,2013-01-10 05:14:00,
2013-01-09 23:19:00,51.6,48.4,29.32,NE,45,0.0,0.0,89,0.00,,,1.33,WUHU216HW,2013-01-10 05:19:00,
2013-01-09 23:24:00,51.4,48.2,29.32,West,270,0.0,0.0,89,0.00,,,1.33,WUHU216HW,2013-01-10 05:24:00,
2013-01-09 23:29:00,51.4,48.2,29.32,West,270,0.0,0.0,89,0.00,,,1.33,WUHU216HW,2013-01-10 05:29:00,
2013-01-09 23:34:00,51.2,48.0,29.33,WSW,248,0.0,0.0,89,0.00,,,1.33,WUHU216HW,2013-01-10 05:34:00,
2013-01-09 23:39:00,51.0,47.8,29.33,WSW,248,0.0,0.0,89,0.00,,,1.33,WUHU216HW,2013-01-10 05:39:00,
2013-01-09 23:44:00,51.0,47.8,29.34,SW,225,0.0,0.0,89,0.00,,,1.33,WUHU216HW,2013-01-10 05:44:00,
2013-01-09 23:49:00,51.0,47.8,29.34,SW,225,0.0,0.0,89,0.00,,,1.33,WUHU216HW,2013-01-10 05:49:00,
2013-01-09 23:54:00,51.0,47.8,29.32,SW,225,0.0,0.0,89,0.00,,,1.33,WUHU216HW,2013-01-10 05:54:00,
2013-01-09 23:59:00,50.9,47.7,29.32,SW,225,0.0,0.0,89,0.00,,,1.33,WUHU216HW,2013-01-10 05:59:00,